LARES

Last updated on Wed Jun 24 2026 00:03:44 GMT+0000 (Coordinated Universal Time)

1 38077U 12006A 26173.71127188 -.00000039 00000+0 -21991-5 0 9998 2 38077 69.4910 282.8101 0007656 21.2751 338.8592 12.54932076657768
UTC large
Height (km)
Speed (km/s)
/
Latitude / Longitude
Inclination (degrees)
Orbital Period (minutes)
Azimuth
Elevation
Range (km)
Doppler Factor

Next 0 passes for location: London (51.5072 / 0.1276)

No passes found over London.